Beckley, WV

7:56 PM EDT on April 29, 2017 (GMT -0400)
Raleigh County Memorial

Weather History for KBKW - December, 2010

Change the Weather History Date:

Tuesday, December 28, 2010

  Actual Average Record
Temperature  
Mean Temperature 21 °F 32 °F  
Max Temperature 29 °F 40 °F 70 °F (1984)
Min Temperature 13 °F 24 °F -6 °F (1925)
Degree Days  
Heating Degree Days 44 33  
Month to date heating degree days 1177 853  
Since 1 July heating degree days 2139 1993  
Cooling Degree Days 0 0  
Month to date cooling degree days 0 0  
Year to date cooling degree days 871 557  
Moisture  
Dew Point 11 °F    
Average Humidity 69    
Maximum Humidity 88    
Minimum Humidity 50    
Precipitation  
Precipitation T in 0.09 in 1.56 in (1967)
Month to date precipitation 2.22 2.72  
Year to date precipitation 43.22 40.91  
Snow  
Snow 0.40 in - - ()
Month to date snowfall 47.3  
Since 1 September snowfall 47.3  
Snow Depth 0.00 in    
Sea Level Pressure  
Sea Level Pressure 30.25 in    
Wind  
Wind Speed 6 mph (WSW)    
Max Wind Speed 13 mph    
Max Gust Speed 16 mph    
Visibility 8 miles    
Events Snow    
T = Trace of Precipitation, MM = Missing Value Source: NWS Daily Summary

Daily Weather History Graph

Daily Weather History Graph

Search for Another Location

Airport or City:

Trip Planner

Search our weather history database for the weather conditions in past years. The results will help you decide how hot, cold, wet, or windy it might be!

Date:

Astronomy

Dec. 28, 2010 Rise Set
Actual Time 7:39 AM EST 5:13 PM EST
Civil Twilight 7:09 AM EST 5:42 PM EST
Nautical Twilight 6:36 AM EST 6:15 PM EST
Astronomical Twilight 6:04 AM EST 6:47 PM EST
Moon 12:40 AM EST (12/28) 12:06 PM EST (12/28)
Length of Visible Light 10h 32m
Length of Day
9h 34m
Last Quarter, 44% of the Moon is Illuminated
Dec 28
Last Quarter
Jan 4
New
Jan 12
First Quarter
Jan 19
Full
Jan 26
Last Quarter

Hourly Weather History & Observations

Time (EST) Temp. Windchill Dew Point Humidity Pressure Visibility Wind Dir Wind Speed Gust Speed Precip Events Conditions
12:14 AM 15.8 °F 5.1 °F 10.4 °F 79% 30.16 in 3.0 mi West 8.1 mph - 0.00 in Snow Light Snow
12:28 AM 15.8 °F 7.2 °F 12.2 °F 86% 30.16 in 2.5 mi WSW 5.8 mph - 0.00 in Snow Light Snow
12:51 AM 14.0 °F 5.1 °F 10.9 °F 88% 30.32 in 2.5 mi WSW 5.8 mph - 0.00 in Snow Light Snow
12:56 AM 14.0 °F 5.1 °F 10.4 °F 86% 30.16 in 3.0 mi WSW 5.8 mph - 0.00 in Snow Light Snow
1:27 AM 14.0 °F 2.9 °F 10.4 °F 86% 30.17 in 4.0 mi WSW 8.1 mph - N/A Snow Light Snow
1:38 AM 14.0 °F 2.9 °F 10.4 °F 86% 30.17 in 4.0 mi WSW 8.1 mph - N/A Snow Light Snow
1:51 AM 14.0 °F 5.1 °F 10.0 °F 84% 30.33 in 2.5 mi WSW 5.8 mph - 0.00 in Snow Light Snow
2:04 AM 14.0 °F 5.1 °F 10.4 °F 86% 30.17 in 3.0 mi WSW 5.8 mph - 0.00 in Snow Light Snow
2:51 AM 15.1 °F 5.2 °F 10.9 °F 84% 30.35 in 5.0 mi SW 6.9 mph - 0.00 in Snow Light Snow
3:51 AM 16.0 °F 5.3 °F 12.0 °F 84% 30.34 in 10.0 mi WSW 8.1 mph - 0.00 in   Overcast
4:51 AM 16.0 °F 7.4 °F 12.0 °F 84% 30.33 in 10.0 mi WSW 5.8 mph - N/A   Overcast
5:08 AM 15.8 °F 10.2 °F 12.2 °F 86% 30.17 in 10.0 mi WSW 3.5 mph - N/A   Overcast
5:51 AM 17.1 °F 6.6 °F 12.0 °F 81% 30.34 in 10.0 mi West 8.1 mph - N/A   Overcast
6:51 AM 16.0 °F 7.4 °F 12.0 °F 84% 30.34 in 10.0 mi WNW 5.8 mph - N/A   Overcast
7:51 AM 16.0 °F 6.3 °F 10.9 °F 81% 30.35 in 10.0 mi WNW 6.9 mph - N/A   Overcast
8:51 AM 15.1 °F - 10.0 °F 80% 30.36 in 10.0 mi Calm Calm - N/A   Scattered Clouds
9:51 AM 18.0 °F 11.1 °F 12.0 °F 78% 30.35 in 10.0 mi WSW 4.6 mph - N/A   Clear
10:51 AM 19.4 °F 9.5 °F 12.2 °F 74% 30.17 in 10.0 mi West 8.1 mph - N/A   Clear
11:51 AM 23.0 °F 15.8 °F 12.9 °F 65% 30.28 in 10.0 mi West 5.8 mph - N/A   Clear
12:51 PM 25.0 °F 18.1 °F 12.9 °F 60% 30.25 in 10.0 mi West 5.8 mph - N/A   Clear
1:51 PM 27.0 °F 21.6 °F 12.9 °F 56% 30.22 in 10.0 mi WNW 4.6 mph - N/A   Clear
2:51 PM 28.9 °F 23.9 °F 12.9 °F 51% 30.20 in 10.0 mi West 4.6 mph - N/A   Clear
3:51 PM 28.9 °F 20.4 °F 12.9 °F 51% 30.20 in 10.0 mi West 9.2 mph - N/A   Clear
4:51 PM 28.0 °F 20.8 °F 12.0 °F 51% 30.20 in 10.0 mi West 6.9 mph - N/A   Scattered Clouds
5:51 PM 25.0 °F 17.1 °F 12.0 °F 58% 30.22 in 10.0 mi West 6.9 mph - N/A   Clear
6:51 PM 24.1 °F 18.2 °F 10.9 °F 57% 30.23 in 10.0 mi West 4.6 mph - N/A   Clear
7:51 PM 21.9 °F 15.7 °F 10.9 °F 63% 30.24 in 10.0 mi West 4.6 mph - N/A   Clear
8:51 PM 21.0 °F 14.6 °F 10.9 °F 65% 30.25 in 10.0 mi West 4.6 mph - N/A   Clear
9:51 PM 17.1 °F 11.7 °F 10.9 °F 77% 30.24 in 10.0 mi East 3.5 mph - N/A   Clear
10:51 PM 17.1 °F - 10.0 °F 74% 30.25 in 10.0 mi Calm Calm - N/A   Clear
11:51 PM 19.0 °F 12.3 °F 10.9 °F 71% 30.22 in 10.0 mi South 4.6 mph - N/A   Clear